"Period start","avg(HW err(1)/warn(2) (#))","avg(Visibility (m))","avg(Weather code (#))","avg(Precip intensity (mm/h))","min(HW err(1)/warn(2) (#))","max(HW err(1)/warn(2) (#))","std(HW err(1)/warn(2) (#))","med(HW err(1)/warn(2) (#))","min(Visibility (m))","max(Visibility (m))","std(Visibility (m))","med(Visibility (m))","min(Weather code (#))","max(Weather code (#))","std(Weather code (#))","med(Weather code (#))","min(Precip intensity (mm/h))","max(Precip intensity (mm/h))","std(Precip intensity (mm/h))","med(Precip intensity (mm/h))"
2014-08-13 00:00:00,0,42053,0,0.00,0,0,0,0,27465,50000,7407,41170,0,0,0,0,0.00,0.00,0.00,0.00
2014-08-13 00:10:00,0,36883,0,0.00,0,0,0,0,29706,50000,7567,33248,0,0,0,0,0.00,0.00,0.00,0.00
2014-08-13 00:20:00,0,45376,0,0.00,0,0,0,0,38630,50000,4630,45860,0,0,0,0,0.00,0.00,0.00,0.00
2014-08-13 00:30:00,0,46036,0,0.00,0,0,0,0,36751,50000,4595,48319,0,0,0,0,0.00,0.00,0.00,0.00
2014-08-13 00:40:00,0,38052,0,0.00,0,0,0,0,22385,46574,7152,36926,0,0,0,0,0.00,0.00,0.00,0.00
2014-08-13 00:50:00,0,42616,0,0.00,0,0,0,0,31374,50000,6743,45094,0,0,0,0,0.00,0.00,0.00,0.00
2014-08-13 01:00:00,0,43313,0,0.00,0,0,0,0,21188,50000,10374,49507,0,0,0,0,0.00,0.00,0.00,0.00
2014-08-13 01:10:00,0,34090,0,0.00,0,0,0,0,21341,47760,7087,33910,0,0,0,0,0.00,0.00,0.00,0.00
2014-08-13 01:20:00,0,41272,0,0.00,0,0,0,0,24963,50000,7361,44166,0,0,0,0,0.00,0.00,0.00,0.00
2014-08-13 01:30:00,0,46784,0,0.00,0,0,0,0,35354,50000,5080,49652,0,0,0,0,0.00,0.00,0.00,0.00
2014-08-13 01:40:00,0,47499,0,0.00,0,0,0,0,40308,50000,2916,48174,0,0,0,0,0.00,0.00,0.00,0.00
2014-08-13 01:50:00,0,37542,0,0.00,0,0,0,0,26777,50000,6741,36800,0,0,0,0,0.00,0.00,0.00,0.00
2014-08-13 02:00:00,0,43043,0,0.00,0,0,0,0,24830,50000,7518,45070,0,0,0,0,0.00,0.00,0.00,0.00
2014-08-13 02:10:00,0,41815,0,0.00,0,0,0,0,22569,50000,10424,47387,0,0,0,0,0.00,0.00,0.00,0.00
2014-08-13 02:20:00,0,45914,0,0.00,0,0,0,0,37077,50000,5286,50000,0,0,0,0,0.00,0.00,0.00,0.00
2014-08-13 02:30:00,0,47226,0,0.00,0,0,0,0,34344,50000,4804,50000,0,0,0,0,0.00,0.00,0.00,0.00
2014-08-13 02:40:00,0,45119,0,0.00,0,0,0,0,35332,50000,5109,47032,0,0,0,0,0.00,0.00,0.00,0.00
2014-08-13 02:50:00,0,43510,0,0.00,0,0,0,0,32257,50000,6461,45017,0,0,0,0,0.00,0.00,0.00,0.00
2014-08-13 03:00:00,0,46460,0,0.00,0,0,0,0,36095,50000,4824,49182,0,0,0,0,0.00,0.00,0.00,0.00
2014-08-13 03:10:00,0,48972,0,0.00,0,0,0,0,44791,50000,2013,50000,0,0,0,0,0.00,0.00,0.00,0.00
2014-08-13 03:20:00,0,46095,0,0.00,0,0,0,0,35764,50000,5041,48246,0,0,0,0,0.00,0.00,0.00,0.00
2014-08-13 03:30:00,0,44236,0,0.00,0,0,0,0,30345,50000,5895,45130,0,0,0,0,0.00,0.00,0.00,0.00
2014-08-13 03:40:00,0,46825,0,0.00,0,0,0,0,38973,50000,3901,48860,0,0,0,0,0.00,0.00,0.00,0.00
2014-08-13 03:50:00,0,45485,0,0.00,0,0,0,0,31676,50000,6985,50000,0,0,0,0,0.00,0.00,0.00,0.00
2014-08-13 04:00:00,0,45206,0,0.00,0,0,0,0,37153,50000,4527,47410,0,0,0,0,0.00,0.00,0.00,0.00
2014-08-13 04:10:00,0,48340,0,0.00,0,0,0,0,42262,50000,2633,50000,0,0,0,0,0.00,0.00,0.00,0.00
2014-08-13 04:20:00,0,48613,0,0.00,0,0,0,0,43048,50000,2438,50000,0,0,0,0,0.00,0.00,0.00,0.00
2014-08-13 04:30:00,0,45722,0,0.00,0,0,0,0,36092,50000,4544,47652,0,0,0,0,0.00,0.00,0.00,0.00
2014-08-13 04:40:00,0,42689,0,0.00,0,0,0,0,33120,50000,5395,44392,0,0,0,0,0.00,0.00,0.00,0.00
2014-08-13 04:50:00,0,47451,0,0.00,0,0,0,0,41711,50000,2928,48972,0,0,0,0,0.00,0.00,0.00,0.00
2014-08-13 05:00:00,0,45415,0,0.00,0,0,0,0,34178,50000,5489,47800,0,0,0,0,0.00,0.00,0.00,0.00
2014-08-13 05:10:00,0,46400,0,0.00,0,0,0,0,39058,50000,3368,47444,0,0,0,0,0.00,0.00,0.00,0.00
2014-08-13 05:20:00,0,46604,0,0.00,0,0,0,0,43608,50000,2414,46096,0,0,0,0,0.00,0.00,0.00,0.00
2014-08-13 05:30:00,0,46253,0,0.00,0,0,0,0,37082,50000,3503,47600,0,0,0,0,0.00,0.00,0.00,0.00
2014-08-13 05:40:00,0,44330,0,0.00,0,0,0,0,35823,50000,4094,44509,0,0,0,0,0.00,0.00,0.00,0.00
2014-08-13 05:50:00,0,45631,0,0.00,0,0,0,0,32700,50000,5788,49240,0,0,0,0,0.00,0.00,0.00,0.00
2014-08-13 06:00:00,0,43030,0,0.00,0,0,0,0,32969,50000,5127,42592,0,0,0,0,0.00,0.00,0.00,0.00
2014-08-13 06:10:00,0,45166,0,0.00,0,0,0,0,38149,50000,4486,45268,0,0,0,0,0.00,0.00,0.00,0.00
2014-08-13 06:20:00,0,49361,0,0.00,0,0,0,0,45150,50000,1477,50000,0,0,0,0,0.00,0.00,0.00,0.00
2014-08-13 06:30:00,0,49543,0,0.00,0,0,0,0,46784,50000,959,50000,0,0,0,0,0.00,0.00,0.00,0.00
2014-08-13 06:40:00,0,48340,0,0.00,0,0,0,0,44348,50000,2537,50000,0,0,0,0,0.00,0.00,0.00,0.00
2014-08-13 06:50:00,0,48931,0,0.00,0,0,0,0,43273,50000,2112,50000,0,0,0,0,0.00,0.00,0.00,0.00
2014-08-13 07:00:00,0,48080,0,0.00,0,0,0,0,41882,50000,2730,50000,0,0,0,0,0.00,0.00,0.00,0.00
2014-08-13 07:10:00,0,47848,0,0.00,0,0,0,0,43264,50000,2622,49330,0,0,0,0,0.00,0.00,0.00,0.00
2014-08-13 07:20:00,0,48099,0,0.00,0,0,0,0,43476,50000,2262,49352,0,0,0,0,0.00,0.00,0.00,0.00
2014-08-13 07:30:00,0,45226,0,0.00,0,0,0,0,36601,50000,4781,45926,0,0,0,0,0.00,0.00,0.00,0.00
2014-08-13 07:40:00,0,48585,0,0.00,0,0,0,0,43523,50000,2107,49556,0,0,0,0,0.00,0.00,0.00,0.00
2014-08-13 07:50:00,0,49174,0,0.00,0,0,0,0,45921,50000,1256,50000,0,0,0,0,0.00,0.00,0.00,0.00
2014-08-13 08:00:00,0,48659,0,0.00,0,0,0,0,43882,50000,1844,49531,0,0,0,0,0.00,0.00,0.00,0.00
2014-08-13 08:10:00,0,48776,0,0.00,0,0,0,0,45724,50000,1872,50000,0,0,0,0,0.00,0.00,0.00,0.00
2014-08-13 08:20:00,0,45541,0,0.00,0,0,0,0,37316,50000,4957,48266,0,0,0,0,0.00,0.00,0.00,0.00
2014-08-13 08:30:00,0,48552,0,0.00,0,0,0,0,43393,50000,2021,49647,0,0,0,0,0.00,0.00,0.00,0.00
2014-08-13 08:40:00,0,49317,0,0.00,0,0,0,0,47101,50000,1052,50000,0,0,0,0,0.00,0.00,0.00,0.00
2014-08-13 08:50:00,0,49700,0,0.00,0,0,0,0,48426,50000,601,50000,0,0,0,0,0.00,0.00,0.00,0.00
2014-08-13 09:00:00,0,49961,0,0.00,0,0,0,0,49608,50000,118,50000,0,0,0,0,0.00,0.00,0.00,0.00
2014-08-13 09:10:00,0,49014,0,0.00,0,0,0,0,44832,50000,1975,50000,0,0,0,0,0.00,0.00,0.00,0.00
2014-08-13 09:20:00,0,49165,0,0.00,0,0,0,0,45785,50000,1428,50000,0,0,0,0,0.00,0.00,0.00,0.00
2014-08-13 09:30:00,0,49968,0,0.00,0,0,0,0,49681,50000,96,50000,0,0,0,0,0.00,0.00,0.00,0.00
2014-08-13 09:40:00,0,50000,0,0.00,0,0,0,0,50000,50000,0,50000,0,0,0,0,0.00,0.00,0.00,0.00
2014-08-13 09:50:00,0,49857,0,0.00,0,0,0,0,48567,50000,430,50000,0,0,0,0,0.00,0.00,0.00,0.00
2014-08-13 10:00:00,0,50000,0,0.00,0,0,0,0,50000,50000,0,50000,0,0,0,0,0.00,0.00,0.00,0.00
2014-08-13 10:10:00,0,50000,0,0.00,0,0,0,0,50000,50000,0,50000,0,0,0,0,0.00,0.00,0.00,0.00
2014-08-13 10:20:00,0,50000,0,0.00,0,0,0,0,50000,50000,0,50000,0,0,0,0,0.00,0.00,0.00,0.00
2014-08-13 10:30:00,0,50000,0,0.00,0,0,0,0,50000,50000,0,50000,0,0,0,0,0.00,0.00,0.00,0.00
2014-08-13 10:40:00,0,50000,0,0.00,0,0,0,0,50000,50000,0,50000,0,0,0,0,0.00,0.00,0.00,0.00
2014-08-13 10:50:00,0,50000,0,0.00,0,0,0,0,50000,50000,0,50000,0,0,0,0,0.00,0.00,0.00,0.00
2014-08-13 11:00:00,0,50000,0,0.00,0,0,0,0,50000,50000,0,50000,0,0,0,0,0.00,0.00,0.00,0.00
2014-08-13 11:10:00,0,50000,0,0.00,0,0,0,0,50000,50000,0,50000,0,0,0,0,0.00,0.00,0.00,0.00
2014-08-13 11:20:00,0,50000,0,0.00,0,0,0,0,50000,50000,0,50000,0,0,0,0,0.00,0.00,0.00,0.00
2014-08-13 11:30:00,0,49724,0,0.00,0,0,0,0,47671,50000,696,50000,0,0,0,0,0.00,0.00,0.00,0.00
2014-08-13 11:40:00,0,50000,0,0.00,0,0,0,0,50000,50000,0,50000,0,0,0,0,0.00,0.00,0.00,0.00
2014-08-13 11:50:00,0,50000,0,0.00,0,0,0,0,50000,50000,0,50000,0,0,0,0,0.00,0.00,0.00,0.00
2014-08-13 12:00:00,0,50000,0,0.00,0,0,0,0,50000,50000,0,50000,0,0,0,0,0.00,0.00,0.00,0.00
2014-08-13 12:10:00,0,50000,0,0.00,0,0,0,0,50000,50000,0,50000,0,0,0,0,0.00,0.00,0.00,0.00
2014-08-13 12:20:00,0,43796,0,0.00,0,0,0,0,31924,50000,7265,47074,0,0,0,0,0.00,0.00,0.00,0.00
2014-08-13 12:30:00,0,50000,0,0.00,0,0,0,0,50000,50000,0,50000,0,0,0,0,0.00,0.00,0.00,0.00
2014-08-13 12:40:00,0,50000,0,0.00,0,0,0,0,50000,50000,0,50000,0,0,0,0,0.00,0.00,0.00,0.00
2014-08-13 12:50:00,0,50000,0,0.00,0,0,0,0,50000,50000,0,50000,0,0,0,0,0.00,0.00,0.00,0.00
2014-08-13 13:00:00,0,50000,0,0.00,0,0,0,0,50000,50000,0,50000,0,0,0,0,0.00,0.00,0.00,0.00
2014-08-13 13:10:00,0,50000,0,0.00,0,0,0,0,50000,50000,0,50000,0,0,0,0,0.00,0.00,0.00,0.00
2014-08-13 13:20:00,0,50000,0,0.00,0,0,0,0,50000,50000,0,50000,0,0,0,0,0.00,0.00,0.00,0.00
2014-08-13 13:30:00,0,50000,0,0.00,0,0,0,0,50000,50000,0,50000,0,0,0,0,0.00,0.00,0.00,0.00
2014-08-13 13:40:00,0,49959,0,0.00,0,0,0,0,49590,50000,123,50000,0,0,0,0,0.00,0.00,0.00,0.00
2014-08-13 13:50:00,0,50000,0,0.00,0,0,0,0,50000,50000,0,50000,0,0,0,0,0.00,0.00,0.00,0.00
2014-08-13 14:00:00,0,50000,0,0.00,0,0,0,0,50000,50000,0,50000,0,0,0,0,0.00,0.00,0.00,0.00
2014-08-13 14:10:00,0,50000,0,0.00,0,0,0,0,50000,50000,0,50000,0,0,0,0,0.00,0.00,0.00,0.00
2014-08-13 14:20:00,0,50000,0,0.00,0,0,0,0,50000,50000,0,50000,0,0,0,0,0.00,0.00,0.00,0.00
2014-08-13 14:30:00,0,50000,0,0.00,0,0,0,0,50000,50000,0,50000,0,0,0,0,0.00,0.00,0.00,0.00
2014-08-13 14:40:00,0,50000,0,0.00,0,0,0,0,50000,50000,0,50000,0,0,0,0,0.00,0.00,0.00,0.00
2014-08-13 14:50:00,0,50000,0,0.00,0,0,0,0,50000,50000,0,50000,0,0,0,0,0.00,0.00,0.00,0.00
2014-08-13 15:00:00,0,50000,0,0.00,0,0,0,0,50000,50000,0,50000,0,0,0,0,0.00,0.00,0.00,0.00
2014-08-13 15:10:00,0,50000,0,0.00,0,0,0,0,50000,50000,0,50000,0,0,0,0,0.00,0.00,0.00,0.00
2014-08-13 15:20:00,0,50000,0,0.00,0,0,0,0,50000,50000,0,50000,0,0,0,0,0.00,0.00,0.00,0.00
2014-08-13 15:30:00,0,50000,0,0.00,0,0,0,0,50000,50000,0,50000,0,0,0,0,0.00,0.00,0.00,0.00
2014-08-13 15:40:00,0,50000,0,0.00,0,0,0,0,50000,50000,0,50000,0,0,0,0,0.00,0.00,0.00,0.00
2014-08-13 15:50:00,0,49891,0,0.00,0,0,0,0,48912,50000,326,50000,0,0,0,0,0.00,0.00,0.00,0.00
2014-08-13 16:00:00,0,50000,0,0.00,0,0,0,0,50000,50000,0,50000,0,0,0,0,0.00,0.00,0.00,0.00
2014-08-13 16:10:00,0,50000,0,0.00,0,0,0,0,50000,50000,0,50000,0,0,0,0,0.00,0.00,0.00,0.00
2014-08-13 16:20:00,0,50000,0,0.00,0,0,0,0,50000,50000,0,50000,0,0,0,0,0.00,0.00,0.00,0.00
2014-08-13 16:30:00,0,50000,0,0.00,0,0,0,0,50000,50000,0,50000,0,0,0,0,0.00,0.00,0.00,0.00
2014-08-13 16:40:00,0,50000,0,0.00,0,0,0,0,50000,50000,0,50000,0,0,0,0,0.00,0.00,0.00,0.00
2014-08-13 16:50:00,0,50000,0,0.00,0,0,0,0,50000,50000,0,50000,0,0,0,0,0.00,0.00,0.00,0.00
2014-08-13 17:00:00,0,50000,0,0.00,0,0,0,0,50000,50000,0,50000,0,0,0,0,0.00,0.00,0.00,0.00
2014-08-13 17:10:00,0,50000,0,0.00,0,0,0,0,50000,50000,0,50000,0,0,0,0,0.00,0.00,0.00,0.00
2014-08-13 17:20:00,0,50000,0,0.00,0,0,0,0,50000,50000,0,50000,0,0,0,0,0.00,0.00,0.00,0.00
2014-08-13 17:30:00,0,50000,0,0.00,0,0,0,0,50000,50000,0,50000,0,0,0,0,0.00,0.00,0.00,0.00
2014-08-13 17:40:00,0,50000,0,0.00,0,0,0,0,50000,50000,0,50000,0,0,0,0,0.00,0.00,0.00,0.00
2014-08-13 17:50:00,0,50000,0,0.00,0,0,0,0,50000,50000,0,50000,0,0,0,0,0.00,0.00,0.00,0.00
2014-08-13 18:00:00,0,49743,0,0.00,0,0,0,0,47427,50000,772,50000,0,0,0,0,0.00,0.00,0.00,0.00
2014-08-13 18:10:00,0,50000,0,0.00,0,0,0,0,50000,50000,0,50000,0,0,0,0,0.00,0.00,0.00,0.00
2014-08-13 18:20:00,0,50000,0,0.00,0,0,0,0,50000,50000,0,50000,0,0,0,0,0.00,0.00,0.00,0.00
2014-08-13 18:30:00,0,50000,0,0.00,0,0,0,0,50000,50000,0,50000,0,0,0,0,0.00,0.00,0.00,0.00
2014-08-13 18:40:00,0,50000,0,0.00,0,0,0,0,50000,50000,0,50000,0,0,0,0,0.00,0.00,0.00,0.00
2014-08-13 18:50:00,0,50000,0,0.00,0,0,0,0,50000,50000,0,50000,0,0,0,0,0.00,0.00,0.00,0.00
2014-08-13 19:00:00,0,46112,0,0.00,0,0,0,0,23793,50000,8091,50000,0,0,0,0,0.00,0.00,0.00,0.00
2014-08-13 19:10:00,0,49962,0,0.00,0,0,0,0,49619,50000,114,50000,0,0,0,0,0.00,0.00,0.00,0.00
2014-08-13 19:20:00,0,50000,0,0.00,0,0,0,0,50000,50000,0,50000,0,0,0,0,0.00,0.00,0.00,0.00
2014-08-13 19:30:00,0,50000,0,0.00,0,0,0,0,50000,50000,0,50000,0,0,0,0,0.00,0.00,0.00,0.00
2014-08-13 19:40:00,0,50000,0,0.00,0,0,0,0,50000,50000,0,50000,0,0,0,0,0.00,0.00,0.00,0.00
2014-08-13 19:50:00,0,49818,0,0.00,0,0,0,0,48181,50000,546,50000,0,0,0,0,0.00,0.00,0.00,0.00
2014-08-13 20:00:00,1,50000,0,0.00,0,2,1,0,50000,50000,0,50000,0,0,0,0,0.00,0.00,0.00,0.00
2014-08-13 20:10:00,2,49901,0,0.00,2,2,0,2,49175,50000,247,50000,0,0,0,0,0.00,0.00,0.00,0.00
2014-08-13 20:20:00,2,49706,0,0.00,2,2,0,2,47055,50000,884,50000,0,0,0,0,0.00,0.00,0.00,0.00
2014-08-13 20:30:00,2,48650,0,0.00,0,2,1,2,42207,50000,2345,49892,0,0,0,0,0.00,0.00,0.00,0.00
2014-08-13 20:40:00,0,47633,0,0.00,0,2,1,0,39035,50000,3451,49828,0,0,0,0,0.00,0.00,0.00,0.00
2014-08-13 20:50:00,0,47305,0,0.00,0,0,0,0,35480,50000,4451,49416,0,0,0,0,0.00,0.00,0.00,0.00
2014-08-13 21:00:00,0,48528,0,0.00,0,0,0,0,43504,50000,2249,50000,0,0,0,0,0.00,0.00,0.00,0.00
2014-08-13 21:10:00,0,48616,0,0.00,0,0,0,0,45047,50000,1784,49786,0,0,0,0,0.00,0.00,0.00,0.00
2014-08-13 21:20:00,0,48102,0,0.00,0,0,0,0,45289,50000,1972,48630,0,0,0,0,0.00,0.00,0.00,0.00
2014-08-13 21:30:00,0,49788,0,0.00,0,0,0,0,47876,50000,637,50000,0,0,0,0,0.00,0.00,0.00,0.00
2014-08-13 21:40:00,0,48286,0,0.00,0,0,0,0,44782,50000,1938,49378,0,0,0,0,0.00,0.00,0.00,0.00
2014-08-13 21:50:00,0,49407,0,0.00,0,0,0,0,47449,50000,988,50000,0,0,0,0,0.00,0.00,0.00,0.00
2014-08-13 22:00:00,0,49532,0,0.00,0,0,0,0,45323,50000,1403,50000,0,0,0,0,0.00,0.00,0.00,0.00
2014-08-13 22:10:00,0,48361,0,0.00,0,0,0,0,41697,50000,2603,49852,0,0,0,0,0.00,0.00,0.00,0.00
2014-08-13 22:20:00,0,48697,0,0.00,0,0,0,0,44973,50000,1655,49280,0,0,0,0,0.00,0.00,0.00,0.00
2014-08-13 22:30:00,0,46724,0,0.00,0,0,0,0,37891,50000,4005,49045,0,0,0,0,0.00,0.00,0.00,0.00
2014-08-13 22:40:00,0,44789,0,0.00,0,0,0,0,34174,50000,6124,47294,0,0,0,0,0.00,0.00,0.00,0.00
2014-08-13 22:50:00,0,49695,0,0.00,0,0,0,0,48067,50000,604,50000,0,0,0,0,0.00,0.00,0.00,0.00
2014-08-13 23:00:00,0,47570,0,0.00,0,0,0,0,42776,50000,2953,49632,0,0,0,0,0.00,0.00,0.00,0.00
2014-08-13 23:10:00,0,48773,0,0.00,0,0,0,0,46049,50000,1404,49496,0,0,0,0,0.00,0.00,0.00,0.00
2014-08-13 23:20:00,0,47973,0,0.00,0,0,0,0,38493,50000,3682,50000,0,0,0,0,0.00,0.00,0.00,0.00
2014-08-13 23:30:00,0,48218,0,0.00,0,2,1,0,42940,50000,2328,49796,0,0,0,0,0.00,0.00,0.00,0.00
2014-08-13 23:40:00,0,44990,0,0.00,0,2,1,0,32893,50000,5839,48224,0,0,0,0,0.00,0.00,0.00,0.00
2014-08-13 23:50:00,0,43443,0,0.00,0,0,0,0,28089,50000,6563,46182,0,0,0,0,0.00,0.00,0.00,0.00
